Location: Alumbaugh
(37.5976°N, 83.9299°W)
Time: 12:50:00
(UTC+00:00)

RS-15 - Visible Passes

Search period start: 27 March 2023 00:00
Search period end: 06 April 2023 00:00
Orbit: 1884 x 2161 km, 64.8° (Epoch: 26 March)

Date Brightness Start Highest point End Pass type
(mag) Time Alt. Az. Time Alt. Az. Time Alt. Az.
27 Mar 9.9 01:35:58 10° NW 01:43:52 19° NNW 01:51:39 10° NNE visible
27 Mar 9.6 03:54:14 10° NNW 04:02:59 22° NNE 04:09:33 14° ENE visible
27 Mar 8.3 06:06:57 10° NNW 06:17:16 57° NNE 06:17:16 57° NNE visible
27 Mar 9.0 08:20:15 10° NW 08:24:58 25° WNW 08:24:58 25° WNW visible
28 Mar 9.9 00:57:57 10° WNW 01:06:34 21° NNW 01:15:06 10° NNE visible
28 Mar 9.7 03:17:44 10° NNW 03:25:45 19° NNE 03:33:33 10° ENE visible
28 Mar 8.5 05:30:54 10° NNW 05:42:02 48° NE 05:42:02 48° NE visible
28 Mar 8.8 07:43:44 10° NW 07:49:44 33° WNW 07:49:44 33° WNW visible
29 Mar 9.9 00:20:01 10° WNW 00:29:25 24° NNW 00:38:46 10° NNE visible
29 Mar 9.8 02:40:56 10° NNW 02:48:25 18° N 02:55:42 10° NE visible
29 Mar 8.8 04:54:52 10° NNW 05:05:52 39° NE 05:06:52 38° NE visible
29 Mar 8.6 07:07:26 10° NW 07:14:35 42° NW 07:14:35 42° NW visible
30 Mar 9.8 02:03:46 10° NW 02:10:59 17° N 02:18:04 10° NE visible
30 Mar 9.0 04:18:47 10° NNW 04:29:09 32° NE 04:31:45 29° ENE visible
30 Mar 8.4 06:31:14 10° NNW 06:39:28 52° NW 06:39:28 52° NW visible
30 Mar 9.6 08:46:43 10° WNW 08:47:11 11° WNW 08:47:11 11° WNW visible
31 Mar 9.9 01:26:13 10° NW 01:33:33 17° N 01:40:46 10° NNE visible
31 Mar 9.3 03:42:38 10° NNW 03:52:17 26° NNE 03:56:40 21° ENE visible
31 Mar 8.3 05:55:07 10° NNW 06:04:24 60° N 06:04:24 60° N visible
31 Mar 9.4 08:09:17 10° NW 08:12:07 17° WNW 08:12:07 17° WNW visible
01 Apr 9.9 00:48:21 10° NW 00:56:09 18° NNW 01:03:50 10° NNE visible
01 Apr 9.5 03:06:23 10° NNW 03:15:14 22° NNE 03:21:38 15° ENE visible
01 Apr 8.3 05:19:03 10° NNW 05:29:22 59° NNE 05:29:22 59° NNE visible
01 Apr 9.1 07:32:26 10° NW 07:37:05 24° WNW 07:37:05 24° WNW visible
02 Apr 9.9 00:10:21 10° WNW 00:18:50 20° NNW 00:27:15 10° NNE visible
02 Apr 9.7 02:29:55 10° NNW 02:38:02 20° NNE 02:45:54 10° ENE visible
02 Apr 8.4 04:43:01 10° NNW 04:54:21 50° NE 04:54:21 50° NE visible
02 Apr 8.9 06:55:54 10° NW 07:02:05 33° WNW 07:02:05 33° WNW visible
03 Apr 9.7 01:53:10 10° NNW 02:00:42 18° N 02:08:02 10° NE visible
03 Apr 8.7 04:06:58 10° NNW 04:18:02 40° NE 04:19:23 39° ENE visible
03 Apr 8.6 06:19:33 10° NW 06:27:07 45° NW 06:27:07 45° NW visible
04 Apr 9.8 01:16:04 10° NW 01:23:17 17° N 01:30:22 10° NE visible
04 Apr 8.9 03:30:54 10° NNW 03:41:21 33° NE 03:44:26 29° ENE visible
04 Apr 8.3 05:43:21 10° NNW 05:52:10 57° NW 05:52:10 57° NW visible
04 Apr 9.6 07:59:07 10° WNW 07:59:54 11° WNW 07:59:54 11° WNW visible
05 Apr 9.8 00:38:34 10° NW 00:45:51 17° N 00:53:00 10° NNE visible
05 Apr 9.2 02:54:45 10° NNW 03:04:30 27° NNE 03:09:31 21° ENE visible
05 Apr 8.1 05:07:13 10° NNW 05:17:15 67° N 05:17:15 67° N visible
05 Apr 9.4 07:21:32 10° NW 07:24:59 18° WNW 07:24:59 18° WNW visible
